Weather in Verhnesadovoe

Russia / Republic of Crimea     44°41′18″N   33°42′21″E
temp.,
°C
wind,
m/s
gust,
m/s
humid.,
%
clouds,
%
prec.,
mm/h
press.,
hPa
HPBL,
m
1 march, mon
mon100:00+2nne149098 0.3 1025330
03:00+2se129499 0.4 1024175
06:00+2se1194100 0.1 1025120
09:00+3ne1182100 0.3 1025297
12:00+5nne226398 0.1 1026888
15:00+7nnw325599 0.1 10261167
18:00+5n456293 0.0 1027744
21:00+2ne367451 0.0 1029186
2 march, tue
tue200:00+1ne22820 0.0 103049
03:000ne23830 0.0 103141
06:000ne22850 0.0 103029
09:00+2ne11720 0.0 1031194
12:00+5nw22560 0.0 1031960
15:00+5wnw44600 0.0 1030778
18:00+3w34670 0.0 1028781
21:00+2sw237730 0.0 102798
3 march, wed
wed300:00+2sw368274 0.0 1025238
03:00+4wsw5108670 0.0 1023614
06:00+5wnw5985100 0.1 1022468
09:00+4n488295 0.1 1023716
12:00+5nne6873100 0.1 1025936
15:00+7n565489 0.2 10261354
18:00+6n355746 0.0 1027269
21:00+3ene126427 0.0 102922
4 march, thu
thu400:00+2se12670 0.0 102922
03:00+1sse22670 0.0 102822
06:00+1se22650 0.0 102722
09:00+4sse23580 0.0 1027120
12:00+8ssw45550 0.0 10261153
15:00+8ssw67570 0.0 10241091
18:00+5sw57640 0.0 1022815
21:00+3s36820 0.0 1021176
5 march, fri
fri500:00+2s37850 0.0 1020169
03:00+2s35880 0.0 1019128
06:00+1s34870 0.0 1018106
09:00+4s47724 0.0 1018311
12:00+10ssw69520 0.0 1017641
15:00+11ssw710500 0.0 1016701
18:00+8s510657 0.0 1015398
21:00+5s4117913 0.0 1015283